Weather History for Iowa City, IA

Change the Weather History Date:

Friday, December 27, 2013

  Actual Average Record
Temperature  
Mean Temperature 24 °F 22 °F  
Max Temperature 41 °F 30 °F 57 °F (1959)
Min Temperature 7 °F 15 °F -13 °F (1951)
Degree Days  
Heating Degree Days 41 43  
Month to date heating degree days 1218 1060  
Since 1 July heating degree days 2586 2367  
Cooling Degree Days 0 0  
Month to date cooling degree days 0 0  
Year to date cooling degree days 1064 912  
Moisture  
Dew Point 17 °F    
Average Humidity 80    
Maximum Humidity 100    
Minimum Humidity 60    
Precipitation  
Precipitation 0.00 in 0.03 in 1.25 in (1959)
Month to date precipitation 0.64 1.43  
Year to date precipitation 35.06 36.19  
Sea Level Pressure  
Sea Level Pressure 30.23 in    
Wind  
Wind Speed 3 mph (SSW)    
Max Wind Speed 13 mph    
Max Gust Speed 15 mph    
Visibility 5 miles    
Events Fog    
T = Trace of Precipitation, MM = Missing Value Source: NWS Daily Summary

Daily Weather History Graph

Daily Weather History Graph

Search for Another Location

Airport:

Trip Planner

Search our weather history database for the weather conditions in past years. The results will help you decide how hot, cold, wet, or windy it might be!

Date:

Astronomy

Dec. 27, 2013 Rise Set
Actual Time 7:32 AM CST 4:42 PM CST
Civil Twilight 7:00 AM CST 5:14 PM CST
Nautical Twilight 6:25 AM CST 5:49 PM CST
Astronomical Twilight 5:51 AM CST 6:23 PM CST
Moon 2:01 AM CST (12/27) 12:56 PM CST (12/27)
Length of Visible Light 10h 13m
Length of Day
9h 10m
Waning Crescent, 28% of the Moon is Illuminated
Dec 27
Waning Crescent
Jan 1
New
Jan 7
First Quarter
Jan 15
Full
Jan 23
Last Quarter

Hourly Weather History & Observations

Time (CST) Temp. Windchill Dew Point Humidity Pressure Visibility Wind Dir Wind Speed Gust Speed Precip Events Conditions
12:38 AM 15.8 °F - 15.8 °F 100% 30.23 in 1.5 mi Calm Calm - N/A   Clear
12:41 AM 15.8 °F - 14.0 °F 93% 30.23 in 0.8 mi Calm Calm - N/A   Clear
12:52 AM 16.0 °F - 14.0 °F 92% 30.27 in 0.2 mi Calm Calm - N/A Fog Light Freezing Fog
12:59 AM 15.8 °F - 14.0 °F 93% 30.24 in 0.2 mi Calm Calm - N/A Fog Light Freezing Fog
1:28 AM 14.0 °F - 12.2 °F 93% 30.24 in 0.2 mi Calm Calm - N/A Fog Light Freezing Fog
1:36 AM 14.0 °F - 12.2 °F 93% 30.24 in 1.2 mi Calm Calm - N/A   Clear
1:42 AM 12.2 °F - 10.4 °F 92% 30.24 in 3.0 mi Calm Calm - N/A   Clear
1:52 AM 14.0 °F - 12.0 °F 92% 30.27 in 3.0 mi Calm Calm - N/A   Clear
1:58 AM 12.2 °F - 12.2 °F 100% 30.24 in 1.8 mi Calm Calm - N/A   Clear
2:15 AM 14.0 °F - 10.4 °F 86% 30.25 in 0.8 mi Calm Calm - N/A   Clear
2:20 AM 15.8 °F - 12.2 °F 86% 30.25 in 1.2 mi Calm Calm - N/A   Clear
2:28 AM 14.0 °F - 12.2 °F 93% 30.25 in 0.8 mi Calm Calm - N/A   Clear
2:52 AM 12.9 °F - 12.0 °F 96% 30.28 in 0.5 mi Calm Calm - N/A Fog Light Freezing Fog
3:52 AM 12.9 °F - 10.0 °F 88% 30.27 in 0.5 mi Calm Calm - N/A Fog Light Freezing Fog
4:08 AM 10.4 °F - 8.6 °F 92% 30.24 in 0.2 mi Calm Calm - N/A Fog Light Freezing Fog
4:37 AM 12.2 °F - 8.6 °F 85% 30.24 in 0.5 mi Calm Calm - N/A Fog Light Freezing Fog
4:44 AM 10.4 °F - 8.6 °F 92% 30.24 in 1.2 mi Calm Calm - N/A   Clear
4:47 AM 12.2 °F - 8.6 °F 85% 30.24 in 4.0 mi Calm Calm - N/A   Clear
4:52 AM 10.9 °F 4.7 °F 9.0 °F 92% 30.27 in 7.0 mi SSE 3.5 mph - N/A   Clear
5:52 AM 10.0 °F - 8.1 °F 92% 30.30 in 7.0 mi Calm Calm - N/A   Clear
6:52 AM 10.0 °F - 6.1 °F 84% 30.31 in 7.0 mi Calm Calm - N/A   Clear
7:52 AM 9.0 °F - 7.0 °F 92% 30.33 in 4.0 mi Calm Calm - N/A   Clear
8:52 AM 12.0 °F 4.1 °F 9.0 °F 88% 30.32 in 6.0 mi SSE 4.6 mph - N/A   Clear
9:52 AM 19.0 °F - 19.0 °F 100% 30.31 in 6.0 mi Calm Calm - N/A   Clear
10:52 AM 25.0 °F 19.3 °F 21.9 °F 88% 30.29 in 10.0 mi SSW 4.6 mph - N/A   Clear
11:52 AM 27.0 °F 23.0 °F 23.0 °F 85% 30.27 in 10.0 mi SSW 3.5 mph - N/A   Clear
12:52 PM 33.1 °F 26.9 °F 26.1 °F 75% 30.23 in 10.0 mi South 6.9 mph - N/A   Clear
1:52 PM 37.0 °F 31.0 °F 28.0 °F 70% 30.19 in 10.0 mi South 8.1 mph - N/A   Clear
2:52 PM 39.9 °F 32.9 °F 28.9 °F 65% 30.17 in 10.0 mi South 11.5 mph - N/A   Clear
3:52 PM 39.9 °F 35.8 °F 28.0 °F 63% 30.15 in 10.0 mi SSW 5.8 mph - N/A   Clear
4:52 PM 39.0 °F 35.7 °F 28.0 °F 65% 30.14 in 10.0 mi SSW 4.6 mph - N/A   Clear
5:52 PM 41.0 °F 36.4 °F 28.0 °F 60% 30.13 in 10.0 mi SW 6.9 mph - N/A   Clear
6:52 PM 39.9 °F 37.8 °F 28.0 °F 63% 30.15 in 10.0 mi WSW 3.5 mph - N/A   Clear
7:52 PM 36.0 °F - 27.0 °F 70% 30.16 in 10.0 mi Calm Calm - N/A   Clear
8:52 PM 34.0 °F 29.8 °F 26.1 °F 73% 30.16 in 10.0 mi SSW 4.6 mph - N/A   Clear
9:52 PM 34.0 °F 31.0 °F 27.0 °F 75% 30.16 in 10.0 mi SSW 3.5 mph - N/A   Clear
10:52 PM 32.0 °F 27.5 °F 26.1 °F 79% 30.15 in 10.0 mi South 4.6 mph - N/A   Clear
11:52 PM 30.0 °F 26.5 °F 26.1 °F 85% 30.14 in 10.0 mi SSW 3.5 mph - N/A   Clear